Location: Carrières
(48.9495°N, 2.0407°E)
Time: 22:01:56
(UTC+00:00)

Transit 2A Rocket - Visible Passes

Search period start: 12 April 2024 00:00
Search period end: 22 April 2024 00:00
Orbit: 587 x 907 km, 66.7° (Epoch: 11 April)

Date Brightness Start Highest point End Pass type
(mag) Time Alt. Az. Time Alt. Az. Time Alt. Az.
12 Apr 7.1 19:17:04 10° NNW 19:20:19 16° NNE 19:23:42 10° ENE visible
12 Apr 5.7 20:58:54 10° NNW 21:04:06 46° NE 21:05:57 35° E visible
12 Apr 6.1 22:41:29 10° NW 22:45:45 37° W 22:45:45 37° W visible
13 Apr 6.2 20:15:08 10° NNW 20:19:57 32° NE 20:23:18 18° E visible
13 Apr 5.3 21:57:23 10° NW 22:02:49 63° WSW 22:03:07 62° SW visible
13 Apr 7.6 23:42:34 10° W 23:42:56 11° W 23:42:56 11° W visible
14 Apr 6.7 19:31:24 10° NNW 19:35:42 24° NE 19:40:15 10° E visible
14 Apr 5.1 21:13:25 10° NW 21:18:56 84° NE 21:20:30 50° SE visible
14 Apr 7.0 22:56:56 10° WNW 23:00:19 20° W 23:00:19 20° W visible
15 Apr 5.5 20:29:33 10° NNW 20:34:55 56° NE 20:37:55 27° ESE visible
15 Apr 6.3 22:12:22 10° NW 22:17:16 32° WSW 22:17:44 31° WSW visible
16 Apr 6.0 19:45:45 10° NNW 19:50:49 38° NE 19:55:23 14° ESE visible
16 Apr 5.7 21:28:09 10° NW 21:33:31 51° WSW 21:35:12 39° SSW visible
17 Apr 5.2 20:44:07 10° NW 20:49:39 80° WSW 20:52:42 30° SSE visible
17 Apr 7.3 22:28:12 10° WNW 22:31:28 16° WSW 22:32:31 15° WSW visible
18 Apr 5.3 20:00:12 10° NNW 20:05:42 69° NE 20:10:15 17° SE visible
18 Apr 6.8 21:43:18 10° WNW 21:47:52 26° WSW 21:50:05 20° SW visible
19 Apr 5.7 19:16:21 10° NNW 19:21:38 46° NE 19:27:16 10° ESE visible
19 Apr 6.2 20:58:57 10° NW 21:04:09 41° WSW 21:07:40 20° S visible
20 Apr 5.5 20:14:49 10° NW 20:20:20 65° WSW 20:25:20 15° SSE visible
20 Apr 7.6 21:59:51 10° W 22:01:57 12° WSW 22:04:06 10° SW visible
21 Apr 5.3 19:30:51 10° NW 19:36:25 83° NE 19:42:23 10° SE visible
21 Apr 7.2 21:14:20 10° WNW 21:18:25 20° WSW 21:22:38 10° SSW visible
